Flag for Germany Weather past 2 weeks in Leipzig, Saxony, Germany

Now
48 °F

Drizzle. Partly sunny.


Feels Like: 42 °F
Forecast: 42 / 54 °F
Wind: 15 mph from Northwest

Location: Leipzig-Schkeuditz

Current Time: Oct 23, 2014 at 10:58:09 AM

Latest Report: Oct 23, 2014 at 10:20 AM


Visibility: 4 mi

Pressure: 30.12 "Hg

Humidity: 94%

Dew point: 46 °F

Location of LeipzigLocation

Historic Weather in Leipzig — Graph

°F

Leipzig temperature yesterday

Maximum temperature yesterday: 52 °F (at 7:20 PM)
Minimum temperature yesterday: 43 °F (at 7:20 AM)
Average temperature yesterday: 48 °F

Past Weeks' High & Low Weather Summary

 TemperatureHumidityPressure
High73 °F (Oct 9, 3:20 PM)100% (Oct 10, 7:20 AM)30.21 "Hg (Oct 10, 7:20 AM)
Low43 °F (Oct 22, 7:20 AM)52% (Oct 15, 3:50 PM)29.47 "Hg (Oct 21, 8:50 PM)
Average57 °F87%29.87 "Hg
* Reported Oct 8 9:20 AM — Oct 23 9:50 AM, Leipzig, Weather by CustomWeather, © 2014

Note: Actual official high and low records may vary slightly from our data, if they occured in-between our weather recording intervals... More about our weather records

Advertising

Leipzig weather history for previous 24 hours

 ConditionsComfort  
Time TempWeatherWind HumidityBarometerVisibility
9:50 AM
Oct 23
48 °FPartly sunny.14 mph94%30.12 "Hg5 mi
9:20 AM48 °FPartly sunny.15 mph94%30.12 "Hg5 mi
8:50 AM48 °FPartly sunny.14 mph94%30.09 "Hg4 mi
8:20 AM48 °FPassing clouds.17 mph94%30.09 "Hg4 mi
7:50 AM48 °FPassing clouds.18 mph100%30.07 "Hg4 mi
7:20 AM48 °FPassing clouds.17 mph100%30.07 "Hg4 mi
6:50 AM48 °FPassing clouds.18 mph100%30.04 "Hg4 mi
6:20 AM48 °FPassing clouds.16 mph100%30.04 "Hg4 mi
5:50 AM48 °FPassing clouds.17 mph100%30.04 "Hg3 mi
5:20 AM48 °FPassing clouds.17 mph100%30.01 "Hg3 mi
4:50 AM50 °FLight rain. Passing clouds.17 mph100%30.01 "Hg4 mi
4:20 AM50 °FLight rain. Passing clouds.18 mph100%30.01 "Hg4 mi
3:50 AM50 °FLight rain. Passing clouds.17 mph100%30.01 "Hg4 mi
3:20 AM50 °FLight rain. Passing clouds.16 mph100%29.98 "Hg4 mi
2:50 AM50 °FLight rain. Passing clouds.20 mph100%29.98 "Hg3 mi
2:20 AM50 °FLight rain. Passing clouds.21 mph100%29.98 "Hg5 mi
1:50 AM52 °FLight rain. Passing clouds.18 mph100%29.95 "Hg5 mi
1:20 AM52 °FLight rain. Passing clouds.16 mph100%29.95 "Hg4 mi
12:50 AM52 °FDrizzle. Fog.18 mph100%29.95 "Hg3 mi
12:20 AM52 °FPassing clouds.17 mph100%29.92 "Hg3 mi
11:50 PM
Oct 22
52 °FLight rain. Passing clouds.14 mph100%29.92 "Hg4 mi
11:20 PM52 °FPassing clouds.17 mph100%29.92 "Hg5 mi
10:50 PM52 °FPassing clouds.16 mph100%29.89 "Hg3 mi
10:20 PM52 °FPassing clouds.17 mph100%29.89 "Hg3 mi
9:50 PM52 °FPassing clouds.18 mph100%29.86 "Hg3 mi
9:20 PM52 °FLight rain. Passing clouds.21 mph100%29.83 "HgN/A
8:50 PM52 °FLight rain. Mostly cloudy.21 mph100%29.83 "HgN/A
8:20 PM52 °FLight rain. Mostly cloudy.21 mph100%29.80 "HgN/A
7:50 PM52 °FLight rain. Mostly cloudy.20 mph100%29.77 "HgN/A
7:20 PM52 °FRain. Mostly cloudy.20 mph100%29.77 "Hg5 mi
6:50 PM50 °FRain. Partly sunny.12 mph100%29.74 "Hg6 mi
6:20 PM50 °FRain. Partly sunny.8 mph100%29.74 "Hg4 mi
5:50 PM50 °FLight rain. Fog.10 mph100%29.74 "Hg3 mi
5:20 PM48 °FDrizzle. Fog.12 mph100%29.74 "Hg3 mi
4:20 PM46 °FDrizzle. Fog.10 mph100%29.71 "Hg2 mi
3:50 PM46 °FDrizzle. Fog.14 mph100%29.71 "Hg3 mi
3:20 PM45 °FDrizzle. Partly sunny.17 mph100%29.71 "Hg4 mi
2:50 PM45 °FDrizzle. Partly sunny.20 mph100%29.68 "HgN/A
2:20 PM45 °FLight rain. Partly sunny.23 mph93%29.71 "HgN/A
1:50 PM45 °FLight rain. Broken clouds.24 mph93%29.71 "HgN/A
1:20 PM46 °FLight rain. Partly sunny.25 mph93%29.71 "HgN/A
12:50 PM46 °FLight rain. Broken clouds.20 mph93%29.71 "HgN/A
12:20 PM46 °FLight rain. Broken clouds.22 mph93%29.71 "HgN/A
11:50 AM46 °FRain. Broken clouds.24 mph93%29.71 "Hg5 mi
11:20 AM46 °FLight rain. Broken clouds.23 mph93%29.71 "Hg4 mi
10:50 AM48 °FLight rain. Partly sunny.22 mph87%29.71 "HgN/A
10:20 AM46 °FPartly sunny.18 mph93%29.71 "HgN/A
Weather by CustomWeather, © 2014

See weather overviewHow to use our weather pages